This demonstration page uses our WeatherBlox Daily Observations layout. Learn more.

Left ArrowRight Arrow

Hourly Observations for November 26, 2019

Temp ( °F °C ) Dew Point ( °F °C ) Humidity (%) Winds ( mph kmh ) Pressure ( in mb ) Visibility ( mi km ) Precip ( " mm )
12:53 am 00:53 Clear 30 -1.1 24 -4.4 79 79 ENE 5 7 29.76 1008 10 16 0.00 0.00
1:53 am 01:53 Clear 30 -1.1 24 -4.4 79 79 ENE 7 11 29.74 1007 10 16 0.00 0.00
2:53 am 02:53 Clear 30 -1.1 24 -4.4 79 79 ENE 8 13 29.75 1008 10 16 0.00 0.00
3:53 am 03:53 Partly Cloudy 30 -1 N/A N/A ENE 12 19 29.71 1006 10 16 0.00 0.00
4:53 am 04:53 Clear 30 -1 N/A N/A ENE 16 26 29.68 1005 10 16 0.00 0.00
5:53 am 05:53 Clear 30 -1 N/A N/A ENE 18 30 29.65 1004 10 16 0.00 0.00
6:53 am 06:53 Cloudy 32 0 N/A N/A ENE 13 20 29.68 1005 10 16 0.00 0.00
7:28 am 07:28 Cloudy 32 0 N/A N/A NE 9 15 29.76 1008 10 16 0.00 0.00
7:53 am 07:53 Cloudy 32 0 N/A N/A NE 13 20 29.71 1006 10 16 0.00 0.00
8:06 am 08:06 Cloudy with Light Snow 32 0 N/A N/A NE 16 26 29.73 1007 2 3 0.00 0.00
8:15 am 08:15 Cloudy with Heavy Snow 30 -1 N/A N/A NE 14 22 29.74 1007 0 0 0.00 0.00
8:53 am 08:53 Mostly Cloudy with Heavy Snow 30 -1 N/A N/A NE 18 30 29.68 1005 0 0 0.01 0.25
9:53 am 09:53 Cloudy with Light Snow 30 -1 N/A N/A ENE 17 28 29.66 1004 1 1 0.01 0.25
10:07 am 10:07 Cloudy with Light Snow 32 0 N/A N/A NE 17 28 29.69 1006 2 2 0.00 0.00
10:53 am 10:53 Windy with Snow Likely 32 0 N/A N/A NE 21 33 29.62 1003 1 1 0.01 0.25
11:53 am 11:53 Cloudy with Snow 30 -1 N/A N/A NE 23 37 29.57 1001 1 1 0.02 0.51
12:53 pm 12:53 Mostly Cloudy with Heavy Snow 30 -1 N/A N/A NE 23 37 29.52 1000 0 0 0.03 0.76
1:23 pm 13:23 Mostly Cloudy with Heavy Snow 30 -1 N/A N/A NE 18 30 29.56 1001 0 0 0.01 0.25
1:49 pm 13:49 Windy with Snow Likely 30 -1 N/A N/A NE 21 33 29.54 1000 1 2 0.00 0.00
1:53 pm 13:53 Windy with Snow Likely 30 -1 N/A N/A NE 21 33 29.49 999 1 2 0.01 0.25
2:14 pm 14:14 Cloudy with Snow 30 -1 N/A N/A NE 18 30 29.53 1000 1 1 0.01 0.25
2:53 pm 14:53 Cloudy with Snow 30 -1 N/A N/A NE 24 39 29.48 998 1 1 0.03 0.76
3:53 pm 15:53 Windy with Snow Likely 30 -1 N/A N/A NNE 20 31 29.51 999 1 2 0.01 0.25
4:24 pm 16:24 Cloudy with Light Snow 30 -1 N/A N/A NNE 16 26 29.59 1002 1 1 0.00 0.00
4:38 pm 16:38 Cloudy with Light Snow 30 -1 N/A N/A NNE 18 30 29.59 1002 1 2 0.05 1.27
4:45 pm 16:45 Windy with Snow Likely 30 -1 N/A N/A NNE 22 35 29.59 1002 1 1 0.05 1.27
4:53 pm 16:53 Windy with Snow Likely 30 -1 N/A N/A NNE 21 33 29.56 1001 1 1 0.06 1.52
5:01 pm 17:01 Cloudy with Light Snow 30 -1 N/A N/A N 17 28 29.61 1003 1 1 0.00 0.00
5:10 pm 17:10 Cloudy with Snow 30 -1 N/A N/A N 16 26 29.61 1003 1 1 0.00 0.00
5:15 pm 17:15 Cloudy with Light Snow 30 -1 N/A N/A N 18 30 29.62 1003 1 2 0.00 0.00
5:32 pm 17:32 Windy with Snow Likely 30 -1 N/A N/A N 20 31 29.62 1003 1 1 0.00 0.00
5:43 pm 17:43 Cloudy with Light Snow 30 -1 N/A N/A N 18 30 29.63 1003 1 1 0.00 0.00
5:53 pm 17:53 Mostly Cloudy with Snow 30 -1 N/A N/A N 20 31 29.59 1002 1 1 0.00 0.00
6:53 pm 18:53 Mostly Cloudy with Snow 28 -2 N/A N/A N 28 44 29.60 1002 1 1 0.01 0.25
7:41 pm 19:41 Cloudy with Snow 28 -2 N/A N/A N 31 50 29.66 1004 1 1 0.01 0.25
7:53 pm 19:53 Cloudy with Snow 28 -2 N/A N/A N 33 54 29.62 1003 1 1 0.01 0.25
8:01 pm 20:01 Cloudy with Snow 28 -2 N/A N/A N 33 54 29.68 1005 1 1 0.00 0.00
8:16 pm 20:16 Windy with Snow Likely 28 -2 N/A N/A N 30 48 29.69 1005 1 1 0.00 0.00
8:41 pm 20:41 Cloudy with Mist and Fog 28 -2 N/A N/A NNW 28 44 29.71 1006 1 2 0.00 0.00
8:53 pm 20:53 Cloudy with Mist and Fog 28 -2 N/A N/A NNW 30 48 29.67 1005 1 1 0.00 0.00
9:16 pm 21:16 Cloudy with Mist and Fog 28 -2 N/A N/A NNW 26 43 29.74 1007 1 2 0.00 0.00
9:23 pm 21:23 Cloudy with Mist and Fog 28 -2 N/A N/A NNW 25 41 29.75 1007 1 2 0.00 0.00
9:43 pm 21:43 Cloudy with Mist and Fog 28 -2 N/A N/A NNW 28 44 29.77 1008 1 2 0.00 0.00
9:53 pm 21:53 Cloudy with Mist and Fog 28 -2 N/A N/A NNW 26 43 29.73 1007 2 3 0.00 0.00
10:02 pm 22:02 Cloudy with Mist and Fog 28 -2 N/A N/A NNW 30 48 29.79 1009 2 2 0.00 0.00
10:10 pm 22:10 Cloudy with Mist and Fog 28 -2 N/A N/A NNW 30 48 29.79 1009 1 2 0.00 0.00
10:25 pm 22:25 Cloudy with Mist and Fog 28 -2 N/A N/A NNW 30 48 29.79 1009 1 2 0.00 0.00
10:53 pm 22:53 Cloudy with Mist and Fog 27 -3 N/A N/A NNW 26 43 29.78 1008 2 2 0.00 0.00
10:58 pm 22:58 Cloudy with Mist and Fog 27 -3 N/A N/A NNW 24 39 29.84 1010 2 3 0.00 0.00
11:10 pm 23:10 Cloudy with Mist and Fog 27 -3 N/A N/A NW 26 43 29.86 1011 3 5 0.00 0.00
11:23 pm 23:23 Mostly Cloudy with Haze 27 -3 N/A N/A NNW 23 37 29.86 1011 6 10 0.00 0.00
11:53 pm 23:53 Mostly Cloudy 27 -3 N/A N/A NW 20 31 29.85 1011 10 16 0.00 0.00

Powered by AerisWeather